Lapse_Rate
6.3 6.3 6.4 6.4 6.4 6.3 6.4 6.2 6.1 6.3 6.2 6.6 6.9 7.2 7.5 7.5 7.4 7.6 7.6 7.7 7.7 7.7 8.0 8.1 8.1 8.0 7.9 7.9 7.8 7.9 8.0 8.1 8.0 7.9 7.9 8.1 8.0 8.2 8.4 8.8 8.8 9.0 8.9 9.1 9.2 9.1 9.2
6.2 6.3 6.4 6.3 6.4 6.3 6.3 6.2 6.0 6.2 6.3 6.6 6.9 7.3 7.4 7.4 7.4 7.5 7.6 7.7 7.7 7.6 7.8 7.9 8.0 7.9 7.8 7.9 8.0 8.1 8.1 8.1 8.2 8.2 8.6 8.6 8.8 8.9 9.0 8.8 8.8 9.1 9.2 9.4 9.4 9.1 8.9
6.1 6.1 6.3 6.4 6.3 6.3 6.2 6.0 6.0 6.1 6.3 6.6 7.0 7.3 7.4 7.4 7.6 7.7 7.6 7.6 7.7 7.7 7.7 7.8 8.0 7.9 8.0 8.0 8.1 8.2 8.2 8.3 8.2 8.4 8.9 9.1 9.0 8.9 8.8 9.0 9.0 9.4 9.5 9.5 8.9 8.7 8.8
6.1 6.1 6.2 6.4 6.3 6.4 6.3 5.9 6.0 6.1 6.4 6.7 7.2 7.3 7.4 7.5 7.4 7.6 7.6 7.6 7.6 7.6 7.8 7.8 7.9 8.1 8.3 8.0 8.1 8.3 8.4 8.4 8.6 8.9 8.9 8.8 8.9 9.0 9.2 9.4 9.3 9.3 9.2 8.9 8.6 8.4 8.7
5.8 6.1 6.2 6.4 6.3 6.3 6.4 6.0 6.0 6.2 6.4 6.7 7.1 7.4 7.5 7.5 7.5 7.5 7.4 7.4 7.6 7.7 7.9 7.9 8.1 8.1 8.0 8.1 8.2 8.5 8.6 8.7 8.9 9.1 9.2 9.2 9.0 9.1 9.4 9.4 9.4 9.1 9.0 8.9 8.5 8.6 8.6
5.8 6.0 6.2 6.3 6.3 6.3 6.5 6.1 6.0 6.2 6.4 6.7 7.0 7.5 7.5 7.4 7.5 7.5 7.5 7.5 7.6 7.7 7.8 8.0 8.1 8.2 8.3 8.3 8.5 8.6 8.6 8.9 9.1 9.1 9.2 9.2 9.2 9.3 9.5 9.5 9.3 9.1 9.0 8.9 8.6 8.5 8.4
5.5 5.8 6.1 6.4 6.4 6.3 6.3 6.2 5.9 6.3 6.3 6.6 7.0 7.4 7.4 7.3 7.3 7.4 7.7 7.8 7.7 7.8 8.0 8.2 8.3 8.4 8.4 8.5 8.6 8.7 8.7 8.9 9.1 9.0 9.2 9.2 9.2 9.4 9.4 9.4 9.3 8.8 9.1 9.1 8.8 8.5 8.3
5.4 5.4 5.9 6.3 6.4 6.2 6.2 6.2 6.0 6.2 6.3 6.5 7.0 7.2 7.2 7.2 7.0 7.0 7.1 7.4 7.6 7.8 7.9 8.0 8.3 8.2 8.3 8.3 8.4 8.7 8.8 9.0 9.1 9.0 9.2 9.3 9.4 9.3 9.2 9.1 9.1 9.0 9.0 8.9 8.5 8.7 8.4
5.0 5.4 5.8 6.1 6.4 6.2 6.2 6.1 6.1 6.1 6.2 6.6 6.9 7.1 7.0 6.7 6.6 6.9 7.2 7.5 7.7 7.8 8.0 8.1 8.2 8.2 8.1 8.2 8.2 8.5 8.8 9.0 9.1 9.1 9.2 9.1 9.0 9.0 8.8 9.0 9.1 9.0 8.7 8.5 8.5 8.6 8.6
4.5 5.4 5.6 6.2 6.3 6.2 6.1 6.1 6.0 6.2 6.1 6.6 6.9 6.9 6.7 6.5 6.8 7.0 7.2 7.5 7.7 7.8 7.9 8.0 8.0 8.1 8.0 8.1 8.1 8.2 8.5 8.7 8.9 9.1 9.0 9.0 8.8 8.7 8.8 8.9 8.6 8.8 8.6 8.4 8.2 8.6 8.4
4.5 5.4 5.7 6.2 6.2 6.2 6.1 6.0 6.0 6.2 6.3 6.5 6.9 6.8 6.6 6.7 6.7 6.8 7.2 7.5 7.7 8.0 6.8 8.0 8.0 8.2 8.1 8.1 8.1 8.1 8.4 8.7 9.1 9.1 9.2 8.7 8.7 8.5 8.7 8.6 8.4 8.4 8.2 8.2 8.2 8.3 8.2
5.4 5.6 6.1 6.3 6.3 6.1 6.0 5.8 6.0 6.1 6.3 6.6 6.6 6.7 6.7 6.7 6.6 6.9 7.3 7.6 7.7 7.8 7.6 8.0 8.0 8.0 8.0 8.1 8.1 8.1 8.3 8.5 8.6 8.6 8.6 8.8 8.6 8.5 8.4 8.3 8.2 8.1 8.1 8.2 8.0 7.8 7.0
6.0 6.3 6.4 6.4 6.2 6.2 5.9 5.6 5.8 6.1 6.3 6.6 6.5 6.6 6.7 6.7 6.7 7.0 7.4 7.6 7.6 7.5 7.9 7.9 7.8 7.8 7.9 7.9 8.1 8.2 8.3 8.4 8.4 8.3 8.3 8.3 8.2 8.2 8.0 7.9 7.8 7.7 7.8 7.4 6.8 6.1 5.8
6.6 6.6 6.3 6.1 6.0 5.9 5.6 5.6 5.7 6.0 6.2 6.5 6.4 6.6 6.8 6.7 6.9 7.1 7.3 7.5 7.6 7.8 7.9 7.8 7.8 7.7 7.8 7.9 8.1 8.0 8.1 8.3 8.4 8.5 8.3 8.1 7.7 7.8 7.7 7.7 7.8 7.7 7.7 7.8 6.9 5.4 6.0
6.6 6.3 6.1 5.9 5.8 5.7 5.5 5.7 5.8 6.1 6.3 6.4 6.4 6.6 6.7 6.8 6.9 7.2 7.4 7.4 7.6 7.8 7.8 7.8 7.7 7.6 7.6 7.7 7.8 7.9 7.9 8.0 8.1 8.3 8.3 8.0 7.8 7.8 7.7 7.8 7.7 7.7 7.7 7.5 7.2 6.4 6.3
6.4 5.8 6.1 6.0 6.1 5.9 5.9 5.7 5.9 6.0 6.2 6.4 6.4 6.5 6.8 6.8 7.0 7.1 7.4 7.5 7.6 7.8 7.7 7.7 7.6 7.6 7.6 7.7 7.7 7.8 7.8 7.9 8.0 8.0 8.0 8.0 7.7 7.5 7.5 7.7 7.6 7.6 7.4 7.3 7.2 5.7 6.2
6.4 5.9 6.7 6.5 6.5 6.4 6.4 6.0 6.0 6.0 6.2 6.5 6.4 6.4 6.7 6.7 6.9 7.2 7.4 7.4 7.5 7.7 7.7 7.7 7.7 7.8 7.7 7.7 7.8 7.8 7.8 7.8 7.9 8.0 8.0 8.0 8.0 7.6 7.4 7.5 7.4 7.3 7.4 7.3 7.1 6.7 4.9
6.0 6.0 6.5 6.7 6.8 6.8 6.6 6.4 6.1 6.0 6.1 6.3 6.4 6.3 6.6 6.7 6.8 7.1 7.4 7.3 7.4 7.5 7.8 7.7 7.7 7.8 7.8 7.7 7.7 7.8 7.8 7.8 7.8 7.8 7.9 7.9 7.9 7.4 7.5 7.5 7.4 7.3 7.4 7.3 7.2 6.5 6.4
5.9 6.3 6.9 7.0 7.0 7.1 6.9 6.6 6.2 6.0 6.3 6.3 6.3 6.4 6.5 6.6 6.8 7.2 7.4 7.2 7.3 7.4 7.6 7.8 7.8 7.9 7.9 7.8 7.7 7.8 7.8 7.7 7.7 7.7 7.7 7.7 7.6 7.3 7.2 7.3 7.3 7.3 7.4 7.3 7.0 6.8 6.7
5.5 6.2 6.6 6.8 7.1 7.1 7.0 6.7 6.2 6.2 6.3 6.3 6.4 6.4 6.5 6.5 6.9 7.2 7.3 7.2 7.1 7.3 7.5 7.7 7.8 7.9 8.1 7.8 7.9 7.9 7.7 7.7 7.6 7.6 7.6 7.6 7.7 7.7 7.9 7.9 7.8 7.5 7.6 7.3 6.9 6.7 6.7
5.9 6.1 6.6 6.8 7.1 7.3 7.0 6.6 6.4 6.3 6.4 6.2 6.1 6.2 6.4 6.6 6.8 7.1 7.2 7.2 7.1 7.2 7.5 7.6 7.6 7.7 7.8 7.9 7.9 7.9 7.7 7.6 7.5 7.5 7.5 7.4 7.5 7.6 7.7 7.7 7.6 7.5 7.4 7.3 7.1 6.9 6.6
5.8 6.0 6.5 7.0 7.3 7.3 6.9 6.7 6.6 6.4 6.3 6.1 6.1 6.1 6.5 6.9 7.1 7.2 7.0 7.0 7.0 7.0 7.2 7.2 7.2 7.4 7.6 7.7 7.6 7.5 7.4 7.4 7.4 7.5 7.5 7.5 7.5 7.7 7.5 7.5 7.4 7.3 7.2 7.2 7.2 7.1 7.0
5.8 6.1 6.7 7.3 7.5 7.1 6.9 6.9 6.6 6.4 6.4 6.1 6.1 6.3 6.7 6.9 7.1 7.1 7.1 6.9 6.9 7.1 7.1 7.0 7.0 7.2 7.3 7.3 7.3 7.2 7.3 7.3 7.3 7.4 7.5 7.3 7.3 7.4 7.1 7.4 7.2 6.9 7.8 7.9 7.9 7.8 7.5
5.7 6.3 6.8 7.2 7.1 7.1 7.0 7.0 6.6 6.5 6.4 6.3 6.3 6.4 6.5 6.8 7.2 7.3 7.2 6.9 6.9 7.1 7.0 7.0 7.0 7.1 7.0 6.9 6.9 6.8 6.8 6.8 6.9 7.0 7.1 7.2 7.2 7.1 7.0 6.9 4.5 7.6 7.8 7.8 7.9 7.7 7.5
6.1 6.7 6.9 6.9 7.1 7.1 7.1 6.9 6.6 6.6 6.4 6.3 6.2 6.3 6.5 6.7 7.2 7.0 7.2 6.8 7.0 6.9 6.9 7.0 7.0 6.9 6.8 6.7 6.7 6.6 6.6 6.5 6.7 6.8 6.9 7.0 7.0 7.0 6.9 6.4 6.8 7.4 7.7 7.8 7.8 7.8 7.7
6.5 6.7 6.9 7.0 7.2 6.9 7.0 6.9 6.8 6.6 6.3 6.2 6.1 6.4 6.6 6.8 7.0 7.1 7.0 6.8 6.9 6.9 6.9 6.9 6.9 6.8 6.7 6.5 6.6 6.5 6.6 6.6 6.8 6.8 6.9 6.9 6.9 6.7 6.7 6.3 3.7 7.3 7.7 7.8 7.5 6.8 7.7
6.6 6.6 6.6 7.2 7.3 6.9 7.0 6.9 6.6 6.5 6.3 6.2 6.3 6.5 6.6 6.8 6.8 6.7 6.8 6.9 6.9 6.9 7.0 6.9 6.8 6.7 6.6 6.5 6.4 6.3 6.4 6.4 6.4 6.7 7.0 7.1 7.1 6.8 6.4 6.1 6.3 7.2 7.3 7.4 6.9 7.6 7.1
6.5 6.7 6.7 6.9 7.0 7.0 7.2 7.0 6.6 6.5 6.3 6.2 6.5 6.5 6.6 6.7 6.8 6.7 6.8 6.8 6.8 6.9 6.9 6.9 6.7 6.6 6.5 6.2 6.2 6.2 6.2 6.3 6.3 6.5 6.6 6.8 6.9 6.9 6.6 6.1 6.2 7.4 7.1 7.1 7.3 7.1 6.8
6.4 6.6 6.9 7.1 7.2 7.3 7.3 6.8 6.8 6.7 6.7 6.6 6.8 6.6 6.7 6.7 6.8 6.8 6.7 6.8 6.9 6.9 6.8 6.8 6.6 6.6 6.4 6.3 6.2 6.2 6.1 6.2 6.4 6.1 6.7 6.3 6.9 6.8 6.8 7.2 7.2 7.1 7.0 6.9 6.8 6.7 6.6
Wind_Speed
21 21 19 18 17 16 18 18 18 17 18 17 19 20 15 16 14 14 13 14 13 10 9 8 7 7 4 2 8 1 9 17 10 7 8 6 5 6 5 5 4 5 2 3 4 9 5
22 22 20 19 17 18 18 18 19 16 19 18 18 19 15 13 13 13 13 14 11 9 8 6 5 6 2 3 2 9 11 5 7 7 8 8 8 8 1 5 5 5 3 1 5 5 5
23 22 21 19 18 17 18 19 18 17 19 19 16 16 15 11 12 14 13 11 10 8 6 5 5 3 2 11 5 3 9 7 7 7 6 6 6 3 5 1 1 5 4 5 6 2 4
24 23 22 20 19 17 18 19 18 17 17 18 16 15 15 11 12 12 11 10 8 5 5 5 4 2 7 6 7 8 5 3 7 7 4 3 6 4 3 3 6 5 5 3 3 2 2
25 24 23 21 19 17 18 19 19 17 17 17 16 15 13 9 9 11 9 6 6 4 4 2 3 2 8 9 3 4 5 1 4 4 5 2 4 3 5 5 5 6 3 3 1 2 2
27 25 23 22 20 18 18 19 18 17 17 16 14 13 9 7 9 9 8 6 7 3 3 4 4 2 5 2 4 3 2 2 3 2 2 5 5 4 4 5 4 4 3 0 2 1 10
29 27 24 22 21 19 18 18 17 17 16 14 11 11 6 7 11 12 9 3 2 1 4 7 3 3 3 8 4 2 3 2 4 8 2 5 7 3 3 3 4 5 3 2 2 2 8
31 28 25 23 21 20 18 16 17 17 15 12 11 9 6 10 12 15 1 3 4 3 4 10 5 6 6 3 2 3 2 3 4 3 1 6 4 3 3 3 6 6 5 3 2 6 7
31 29 27 24 21 21 18 16 16 16 14 9 11 8 10 12 14 6 4 6 0 1 1 3 6 5 3 6 3 1 2 2 3 3 3 6 2 2 4 4 8 4 5 1 3 3 6
32 29 27 25 22 21 18 16 15 15 12 9 12 10 14 17 4 4 5 3 4 4 4 5 2 4 3 4 2 1 1 4 5 4 4 5 3 4 5 6 4 3 1 3 5 3 3
33 30 28 25 23 20 19 17 16 14 10 11 13 14 21 16 1 3 2 4 2 3 3 3 2 2 3 4 2 3 4 4 5 4 5 2 3 5 7 1 3 2 5 5 4 5 4
35 31 29 26 24 20 18 18 16 13 10 12 15 18 18 6 2 5 5 1 3 6 3 2 2 2 3 3 2 2 5 7 4 6 6 2 2 3 1 4 4 3 5 8 5 3 2
35 31 28 26 23 21 18 18 16 13 11 13 16 20 13 3 3 2 1 4 5 4 1 3 3 3 3 3 5 4 5 6 4 5 4 6 4 5 3 4 4 6 6 3 3 3 4
30 30 28 25 23 20 19 18 17 12 13 13 17 18 11 4 3 3 3 5 2 3 5 1 4 3 4 2 3 4 3 3 6 5 4 4 4 4 5 2 4 3 5 4 5 3 3
28 31 28 25 22 20 18 18 14 9 14 14 17 2 4 3 5 1 6 4 6 6 3 5 4 4 2 2 5 5 4 2 2 2 5 4 1 3 2 2 2 2 3 3 6 2 2
30 30 28 25 22 20 18 15 14 11 16 24 4 4 2 4 3 4 5 4 4 4 1 4 4 2 4 3 3 4 1 2 1 3 2 5 4 3 3 2 6 2 5 3 3 2 3
32 30 29 26 23 20 18 16 14 15 18 22 2 4 3 5 3 5 4 5 4 5 2 4 4 3 3 4 3 2 1 1 1 3 3 3 4 4 1 4 2 2 2 6 5 3 4
34 30 28 26 23 19 18 16 15 17 15 6 3 3 2 2 4 1 4 5 4 2 3 3 4 3 5 3 4 2 4 1 3 2 3 1 5 2 2 2 2 1 3 4 4 3 1
29 29 27 25 22 21 18 16 16 18 24 5 4 2 2 4 4 1 3 2 2 2 3 2 3 2 3 4 5 2 2 1 3 2 5 4 1 3 6 5 3 2 3 4 5 3 4
27 26 25 23 22 20 18 16 17 20 24 3 4 3 4 3 1 7 4 2 2 1 2 4 4 4 4 4 5 5 3 1 2 2 5 6 3 5 7 4 2 4 4 4 5 3 4
24 23 22 22 21 20 17 15 16 17 18 2 2 4 4 4 1 4 4 4 4 2 2 4 4 3 5 4 3 3 2 2 3 1 3 3 4 2 2 3 1 2 4 6 7 5 6
22 21 23 21 20 17 16 14 15 16 15 2 4 4 3 1 6 7 4 6 7 3 2 1 5 1 2 5 6 8 6 4 4 3 3 3 2 2 1 4 5 4 6 7 5 4 7
22 22 21 19 18 16 13 14 16 21 12 3 1 2 5 4 4 6 6 6 7 6 3 2 6 5 3 1 3 4 5 6 5 5 3 3 5 3 3 4 5 6 9 10 5 5 7
23 20 19 17 16 13 13 14 18 21 11 3 3 4 4 2 3 6 7 3 5 5 7 2 4 5 1 7 6 6 10 11 11 8 3 5 4 3 2 3 2 6 2 3 7 4 7
21 19 18 16 12 12 12 14 17 20 12 2 2 4 4 2 2 3 6 6 6 5 4 3 4 2 8 4 5 5 5 6 5 6 7 3 5 3 4 3 6 4 5 7 8 8 9
19 17 15 12 11 11 11 12 15 21 15 3 2 2 4 6 5 5 5 4 5 4 3 3 4 4 6 3 4 4 4 4 2 1 4 5 6 4 3 3 6 7 3 3 4 5 7
17 15 14 12 12 11 9 11 14 20 18 3 2 2 4 4 2 3 4 6 6 5 4 4 5 1 3 2 3 3 3 2 3 5 3 3 3 4 3 3 8 7 3 2 5 7 5
17 16 14 12 12 13 13 11 13 20 17 3 2 2 3 3 2 3 2 5 4 3 5 5 4 3 3 3 3 4 3 5 2 4 6 7 6 4 3 2 7 6 4 7 6 2 6
17 16 13 11 12 15 13 11 11 14 8 6 4 1 1 5 3 1 3 2 2 5 6 0 4 5 5 4 1 3 2 1 2 3 2 2 6 4 9 6 4 6 5 3 2 3 5
Wind_Direction
228 232 234 236 248 254 264 273 276 277 288 290 290 287 287 283 282 277 273 269 268 267 269 280 300 308 308 253 253 14 96 133 129 140 168 159 165 187 204 196 133 229 356 53 150 143 149
226 230 230 236 241 253 264 270 274 276 285 286 288 285 282 278 280 273 265 263 261 259 264 276 291 298 266 268 208 137 120 139 150 155 171 174 197 206 244 192 174 195 62 336 82 120 123
223 227 231 232 242 249 259 267 271 276 279 285 285 281 277 274 271 264 258 253 243 245 254 264 266 265 263 242 158 184 166 193 180 179 172 218 180 160 158 16 230 100 70 16 41 82 90
217 223 225 231 238 244 254 264 269 274 274 282 278 275 269 267 265 254 241 229 236 237 243 245 237 231 248 244 273 288 171 220 201 205 200 265 160 182 149 123 30 65 46 90 300 43 63
217 215 220 230 235 240 253 262 270 274 275 275 271 268 263 257 247 235 219 208 220 216 225 214 192 235 270 316 272 281 188 229 179 203 210 126 145 127 65 97 47 14 156 140 56 79 103
213 214 218 224 232 237 248 259 266 272 276 275 273 263 256 239 221 205 180 174 209 187 222 215 254 301 264 324 305 318 283 3 65 57 17 55 56 65 39 68 188 196 143 112 182 359 38
210 212 215 220 228 235 245 257 265 271 276 276 272 257 236 210 198 171 145 115 114 225 228 199 196 261 286 293 278 324 341 43 36 49 70 12 72 121 222 220 147 133 130 123 286 55 80
209 208 211 216 224 234 243 251 261 268 271 281 266 239 190 187 179 166 326 228 215 198 292 220 243 275 253 216 334 315 34 87 72 119 26 39 90 229 106 82 103 83 95 86 52 16 86
206 205 207 211 218 229 238 247 254 263 268 276 251 210 169 170 150 138 226 239 261 351 170 278 188 210 218 148 172 259 115 137 121 99 53 122 135 129 115 56 86 47 108 70 135 88 72
203 201 204 206 213 224 233 239 248 256 264 264 234 181 161 153 109 177 232 248 294 167 69 292 229 281 136 134 48 280 37 126 37 130 100 74 1 113 70 74 93 93 68 113 110 88 154
201 197 201 203 208 218 227 236 242 249 254 249 217 178 170 175 175 176 239 312 139 65 90 250 226 251 51 128 150 7 350 42 132 125 93 245 66 66 61 70 78 109 74 66 88 85 95
204 197 198 199 203 213 226 233 237 242 247 231 208 179 162 273 248 243 327 354 56 44 259 205 191 146 79 35 27 310 35 46 122 70 43 50 38 60 86 54 57 112 54 37 50 72 52
201 193 194 196 200 205 216 230 235 229 233 216 206 173 167 196 215 340 63 52 46 124 350 193 152 125 99 32 33 49 32 25 100 85 24 11 349 332 48 78 44 71 65 11 358 7 218
204 190 189 194 198 201 207 225 230 225 225 197 197 164 246 244 290 349 61 55 145 241 209 133 125 89 123 128 19 26 71 55 26 73 97 125 342 8 345 80 155 76 139 152 211 194 247
263 190 182 189 194 197 204 219 220 221 213 174 153 202 259 269 218 115 75 79 211 215 204 131 62 90 77 62 114 76 57 90 32 26 126 136 14 314 49 59 110 174 54 157 108 31 57
252 185 180 184 191 196 201 208 214 213 196 156 172 169 241 322 106 73 78 209 233 217 193 98 132 120 140 154 83 77 96 322 103 52 178 187 104 30 342 74 42 108 146 58 11 134 260
229 184 178 180 186 192 190 205 212 216 188 177 101 110 260 4 74 57 151 222 268 254 204 121 160 136 130 133 95 84 138 355 10 11 63 118 95 286 20 27 158 26 56 54 105 111 159
200 179 177 177 180 184 196 198 207 214 167 132 151 112 297 54 65 31 155 195 262 295 32 88 100 102 142 124 94 104 160 191 10 275 85 29 121 117 188 279 247 174 135 126 112 202 91
178 172 173 173 171 185 194 196 204 196 173 133 117 121 351 88 136 269 259 267 255 332 30 78 105 113 80 123 100 127 140 319 6 74 156 179 33 64 354 354 346 172 108 100 104 85 195
164 165 169 168 169 186 190 196 201 200 196 98 109 99 346 49 136 141 150 209 192 342 75 76 114 90 97 72 29 147 135 18 34 83 85 92 100 152 185 198 172 171 158 150 132 125 180
155 159 162 165 175 184 189 194 201 201 188 132 58 201 175 185 236 141 131 179 164 117 67 37 53 80 136 116 81 112 127 116 42 90 58 92 126 109 62 11 353 232 187 181 193 183 169
149 154 162 165 177 182 188 196 192 184 168 114 131 130 42 87 128 117 153 198 167 132 79 81 118 101 89 149 176 191 142 182 186 49 75 18 167 131 182 359 10 283 251 218 223 205 256
145 157 163 168 175 178 193 184 185 173 166 132 215 59 106 294 111 112 193 174 199 121 42 60 154 106 65 156 86 79 86 89 119 128 111 77 129 103 260 4 345 327 224 201 199 192 165
153 158 162 167 171 181 178 176 179 180 183 137 172 108 97 197 140 176 167 153 156 182 144 55 78 98 155 120 114 55 55 63 60 39 63 123 97 72 185 25 351 242 266 225 208 221 207
149 159 162 162 170 164 164 172 177 182 188 108 144 121 124 125 174 108 143 116 92 60 74 85 354 306 138 56 66 50 354 21 9 38 26 65 116 91 140 198 299 289 201 185 174 260 197
148 158 153 149 148 144 147 151 163 176 189 98 97 107 111 122 238 142 133 161 139 119 47 82 39 56 65 78 74 131 192 204 274 31 57 59 66 109 102 148 222 240 263 162 111 294 199
148 141 134 136 131 118 108 116 153 171 184 126 123 144 99 110 281 123 156 159 125 103 105 115 149 104 41 70 83 140 225 190 182 179 201 34 14 160 130 231 286 244 210 176 106 245 166
134 132 131 126 112 92 75 78 126 161 170 129 160 123 127 98 20 28 49 129 122 112 135 183 72 338 40 73 123 203 145 218 140 184 179 170 155 201 109 64 279 165 60 163 218 250 190
125 125 123 114 94 86 74 73 108 147 158 63 71 306 177 81 141 51 76 51 45 162 128 30 159 161 170 90 103 107 147 145 134 237 64 234 190 183 185 215 231 231 218 253 184 215 223